This is the latest recevied weather packets stored in our database for station/object K5KVN. If no packets are shown the sender has not sent any weather packets the latest 10 day(s).
| Time | Temp. | Humidity | Pressure | Rain* | Wind** | Luminosity | Snow |
|---|---|---|---|---|---|---|---|
| 1787937566 | 31.67° C | 46% | 1021.6 hPa | 0 mm | - | - | - |
| 1787936966 | 31.67° C | 46% | 1021.6 hPa | 0 mm | - | - | - |
| 1787936425 | 31.11° C | 45% | 1021.6 hPa | 0 mm | - | - | - |
| 1787935764 | 31.11° C | 50% | 1021.7 hPa | 0 mm | - | - | - |
| 1787935164 | 30.56° C | 50% | 1021.6 hPa | 0 mm | - | - | - |
| 1787934563 | 30° C | 54% | 1021.7 hPa | 0 mm | - | - | - |
| 1787933962 | 30° C | 54% | 1021.7 hPa | 0 mm | - | - | - |
| 1787933360 | 29.44° C | 57% | 1021.7 hPa | 0 mm | - | - | - |
| 1787932763 | 29.44° C | 58% | 1021.8 hPa | 0 mm | - | - | - |
| 1787932218 | 28.33° C | 62% | 1021.8 hPa | 0 mm | - | - | - |
| 1787931619 | 28.33° C | 62% | 1021.9 hPa | 0 mm | - | - | - |
| 1787931016 | 27.78° C | 63% | 1021.8 hPa | 0 mm | - | - | - |
| 1787930358 | 27.22° C | 64% | 1021.7 hPa | 0 mm | - | - | - |
| 1787929756 | 26.67° C | 67% | 1021.8 hPa | 0 mm | - | - | - |
| 1787929218 | 26.11° C | 69% | 1021.7 hPa | 0 mm | - | - | - |
| 1787928557 | 25° C | 71% | 1021.6 hPa | 0 mm | - | - | - |
| 1787927956 | 25° C | 71% | 1021.6 hPa | 0 mm | - | - | - |
| 1787927356 | 24.44° C | 74% | 1021.6 hPa | 0 mm | - | - | - |
| 1787926756 | 23.89° C | 76% | 1021.7 hPa | 0 mm | - | - | - |
| 1787926156 | 22.78° C | 80% | 1021.6 hPa | 0 mm | - | - | - |
| 1787925556 | 22.22° C | 81% | 1021.7 hPa | 0 mm | - | - | - |
| 1787924953 | 21.11° C | 84% | 1021.6 hPa | 0 mm | - | - | - |
| 1787924356 | 20.56° C | 87% | 1021.6 hPa | 0 mm | - | - | - |
| 1787923754 | 19.44° C | 90% | 1021.5 hPa | 0 mm | - | - | - |
| 1787923151 | 18.89° C | 93% | 1021.4 hPa | 0 mm | - | - | - |
* Rain latest hour (hover to see other rain measurements)
** Current wind speed in m/s (hover to see current wind gust speed)